Location: Kershaw
(34.5481°N, 80.5823°W)
Time: 03:06:19
(UTC+00:00)

Tiros 1 despin weight - Pass Details

Date: 05 October 2022
Orbit: 590 x 637 km, 48.2° (Epoch: 30 November)

Event Time Altitude Azimuth Distance (km) Brightness Sun altitude
Rises 03:03:00 0° 305° (NW) 2,902 ? -48.0°
Enters shadow 03:03:11 - 305° (NW) 2,830 ? -48.0°
Reaches altitude 10° 03:05:19 10° 303° (WNW) 2,000 - -48.3°
Maximum altitude 03:09:54 69° 220° (SW) 675 - -49.1°
Drops below altitude 10° 03:14:31 10° 138° (SE) 2,011 - -49.8°
Sets 03:16:50 0° 135° (SE) 2,920 - -50.2°
